SPACEBEENZ-4 (46939 NORAD) Tracking and Keplerian Element Data
This shows tracking and keplerian element data for the satellite.
Feedback or suggestion? Click here.
Element | Value |
Catalog | 46939 |
Name | SPACEBEENZ-4 |
Epoch Orbit | 897 |
Epoch Day | 18.13147893 |
Epoch Year | 2021 |
RAAN | 157.5385 |
Inclination | 97.374 |
Eccentricity | 0.0017654 |
Argument of Perigee | 92.0011 |
Mean Anonmoly | 268.3256 |
Mean Motion | 15.21372979 |
Decay Rate | 2.263E-05 |
L1 | 1 46939U 20085L 21018.13147893 .00002263 00000-0 10367-3 0 9997 |
L2 | 2 46939 97.3740 157.5385 0017654 92.0011 268.3256 15.21372979 8975 |
Live tracking and technical data element details for SPACEBEENZ-4 (NORAD 46939). SPACEBEENZ-4 can be tracked NOW for your location showing map with azimuth and elevation plus other details from your city location.
Track the satellite on the map from your city or location and see movement details for azimuth, elevation, latitude, longitude, range, height, and movement on the map or in text.
IsCatalogInMostPopularTable: catalog: 46939, numindb: 16
Update: records affected: 1
GetName: 46939 SPACEBEENZ-4
Hit Count: updated at: Tue, 19 Jan 2021 01:59:23 GMT